Home > Time Zones > World Clock > Weather > Aktau > Past weeks

Flag for Kazakhstan Weather past 2 weeks in Aktau, Kazakhstan

Now
28 °F

Light snow. Overcast.


Feels Like: 28 °F
Forecast: 30 / 46 °F
Wind: No wind

Location: Aktau

Current Time: Mar 31, 2015 at 11:38:22 PM

Latest Report: Mar 31, 2015 at 11:00 PM


Visibility: N/A

Pressure: 30.15 "Hg

Humidity: 86%

Dew point: 25 °F

Location of AktauLocation

Historic Weather in Aktau — Graph

°F

Aktau temperature yesterday

Maximum temperature yesterday: 37 °F (at 4:00 PM)
Minimum temperature yesterday: 23 °F (at 6:30 AM)
Average temperature yesterday: 32 °F

Past Weeks' High & Low Weather Summary

 TemperatureHumidityPressure
High64 °F (Mar 28, 2:30 PM)93% (Mar 31, 6:00 AM)30.54 "Hg (Mar 31, 6:00 AM)
Low23 °F (Mar 25, 6:00 AM)11% (Mar 29, 3:30 PM)29.74 "Hg (Mar 21, 7:30 AM)
Average42 °F52%30.24 "Hg
* Reported Mar 16 10:00 PM — Mar 31 10:30 PM, Aktau, Weather by CustomWeather, © 2015

Note: Actual official high and low records may vary slightly from our data, if they occured in-between our weather recording intervals... More about our weather records

Advertising

Aktau weather history for previous 24 hours

 ConditionsComfort  
Time TempWeatherWind HumidityBarometerVisibility
10:30 PM
Tue, Mar 31
28 °FLight snow. Overcast.No wind86%30.15 "HgN/A
10:00 PM28 °FLight snow. Overcast.No wind80%30.15 "HgN/A
9:30 PM28 °FLight snow. Mostly cloudy.No wind80%30.15 "HgN/A
9:00 PM30 °FMostly cloudy.3 mph75%30.15 "HgN/A
8:30 PM30 °FMostly cloudy.1 mph75%30.12 "HgN/A
8:00 PM30 °FSunny.3 mph69%30.12 "Hg10 mi
7:30 PM30 °FSunny.8 mph75%30.12 "Hg10 mi
7:00 PM32 °FMore clouds than sun.6 mph64%30.12 "HgN/A
6:30 PM32 °FMore clouds than sun.8 mph60%30.12 "HgN/A
6:00 PM32 °FMore clouds than sun.8 mph64%30.12 "HgN/A
5:30 PM32 °FMore clouds than sun.8 mph64%30.12 "HgN/A
5:00 PM32 °FMore clouds than sun.8 mph64%30.12 "HgN/A
4:30 PM34 °FMore clouds than sun.8 mph51%30.09 "HgN/A
4:00 PM34 °FMore clouds than sun.13 mph48%30.09 "HgN/A
3:30 PM34 °FMore clouds than sun.17 mph48%30.12 "HgN/A
3:00 PM32 °FMore clouds than sun.22 mph55%30.12 "HgN/A
2:30 PM34 °FMore clouds than sun.22 mph51%30.12 "HgN/A
2:00 PM34 °FMore clouds than sun.24 mph51%30.12 "HgN/A
1:30 PM32 °FMore clouds than sun.20 mph51%30.12 "HgN/A
1:00 PM30 °FMostly cloudy.24 mph69%30.15 "HgN/A
12:30 PM28 °FOvercast.17 mph80%30.15 "HgN/A
12:00 PM27 °FLight snow. More clouds than sun.17 mph86%30.15 "HgN/A
11:30 AM27 °FSnow. Mostly cloudy.22 mph86%30.18 "Hg1 mi
11:00 AM27 °FSnow. Mostly cloudy.22 mph86%30.15 "Hg1 mi
10:30 AM27 °FSnow. Mostly cloudy.20 mph86%30.15 "Hg1 mi
10:00 AM25 °FSnow. Mostly cloudy.22 mph93%30.15 "Hg1 mi
9:30 AM25 °FSnow. Mostly cloudy.22 mph93%30.15 "Hg1 mi
9:00 AM25 °FSnow. Mostly cloudy.22 mph86%30.15 "Hg1 mi
8:30 AM25 °FSnow. Mostly cloudy.20 mph93%30.15 "Hg1 mi
7:30 AM25 °FSnow. Mostly cloudy.22 mph93%30.15 "Hg1 mi
7:00 AM25 °FHeavy snow. Mostly cloudy.24 mph93%30.12 "Hg1 mi
6:30 AM25 °FHeavy snow. Mostly cloudy.22 mph93%30.12 "Hg0 mi
6:00 AM25 °FHeavy snow. Mostly cloudy.26 mph93%30.12 "Hg0 mi
5:30 AM27 °FHeavy snow. Mostly cloudy.24 mph86%30.12 "Hg0 mi
5:00 AM27 °FPassing clouds.20 mph86%30.12 "Hg1 mi
4:30 AM28 °FPassing clouds.22 mph69%30.12 "Hg1 mi
4:00 AM28 °FPassing clouds.22 mph69%30.12 "Hg1 mi
3:30 AM34 °FDense fog.29 mph23%30.09 "Hg0 mi
3:00 AM34 °FDense fog.31 mph21%30.09 "Hg0 mi
2:30 AM34 °FDense fog.31 mph19%30.12 "Hg0 mi
2:00 AM34 °FDense fog.29 mph19%30.12 "Hg0 mi
1:30 AM34 °FDense fog.29 mph18%30.15 "Hg0 mi
1:00 AM34 °FDense fog.26 mph18%30.15 "Hg0 mi
12:30 AM34 °FDense fog.29 mph16%30.15 "Hg0 mi
12:00 AM34 °FDense fog.31 mph16%30.15 "Hg0 mi
11:30 PM
Mon, Mar 30
34 °FDense fog.36 mph15%30.12 "Hg0 mi
11:00 PM36 °FDense fog.38 mph14%30.12 "Hg0 mi
Weather by CustomWeather, © 2015

See weather overviewHow to use our weather pages